Sao Paulo, Brazil

11:58 AM -02 on November 23, 2017 (GMT -0200)
Congonhas International

Weather History for SBSP - April, 2013

Change the Weather History Date:

Thursday, April 4, 2013

  Actual Average Record
Temperature  
Mean Temperature 74 °F -  
Max Temperature 81 °F 75 °F 84 °F (1997)
Min Temperature 68 °F 62 °F 57 °F (1998)
Cooling Degree Days 10    
Growing Degree Days 24 (Base 50)    
Moisture  
Dew Point 62 °F    
Average Humidity 65    
Maximum Humidity 83    
Minimum Humidity 42    
Precipitation  
Precipitation 0.00 in - - ()
Sea Level Pressure  
Sea Level Pressure 30.01 in    
Wind  
Wind Speed 7 mph ()    
Max Wind Speed 14 mph    
Max Gust Speed -    
Visibility 6.6 miles    
Events      
Averages and records for this station are not official NWS values.
T = Trace of Precipitation, MM = Missing Value Source: Averaged Metar Reports

Daily Weather History Graph

Daily Weather History Graph

Search for Another Location

Airport or City:

Trip Planner

Search our weather history database for the weather conditions in past years. The results will help you decide how hot, cold, wet, or windy it might be!

Date:

Astronomy

Apr. 04, 2013 Rise Set
Actual Time 6:16 AM -03 6:02 PM -03
Civil Twilight 5:53 AM -03 6:25 PM -03
Nautical Twilight 5:27 AM -03 6:51 PM -03
Astronomical Twilight 5:01 AM -03 7:17 PM -03
Moon 12:40 AM -03 (4/4) 2:01 PM -03 (4/4)
Length of Visible Light 12h 31m
Length of Day
11h 46m
Waning Crescent, 34% of the Moon is Illuminated
Apr 4
Waning Crescent
Apr 10
New
Apr 18
First Quarter
Apr 25
Full
May 2
Last Quarter

Hourly Weather History & Observations

Time (-03) Temp. Heat Index Dew Point Humidity Pressure Visibility Wind Dir Wind Speed Gust Speed Precip Events Conditions
12:00 AM 69.8 °F - 62.6 °F 78% 30.06 in 6.2 mi East 4.6 mph - N/A   Partly Cloudy
1:00 AM 69.8 °F - 64.4 °F 83% 30.06 in 5.0 mi ENE 4.6 mph - N/A   Scattered Clouds
2:00 AM 69.8 °F - 62.6 °F 78% 30.06 in 6.2 mi NE 5.8 mph - N/A   Mostly Cloudy
3:00 AM 69 °F - 63 °F 76%  in 7 mi NE 4.6 mph - -   Mist
3:00 AM 69.8 °F - 62.6 °F 78% 30.06 in 6.2 mi NE 4.6 mph - N/A   Mostly Cloudy
4:00 AM 68.0 °F - 62.6 °F 83% 30.04 in 6.2 mi NE 4.6 mph - N/A   Partly Cloudy
5:00 AM 68.0 °F - 62.6 °F 83% 30.04 in 4.3 mi East 6.9 mph - N/A   Overcast
6:00 AM 68.0 °F - 62.6 °F 83% 30.04 in 5.0 mi NE 5.8 mph - N/A   Mostly Cloudy
7:00 AM 66.2 °F - 60.8 °F 83% 30.18 in 3.7 mi NE 4.6 mph - N/A   Mostly Cloudy
8:00 AM 71.6 °F - 62.6 °F 73% 30.06 in - NNE 8.1 mph - N/A   Clear
9:00 AM 73 °F - 62 °F 61%  in 12 mi North 6.9 mph - -   Clear
9:00 AM 73.4 °F - 62.6 °F 69% 30.06 in - North 6.9 mph - N/A   Clear
10:00 AM 77.0 °F - 62.6 °F 61% 30.06 in 6.2 mi North 8.1 mph - N/A   Scattered Clouds
11:00 AM 78.8 °F - 62.6 °F 57% 30.04 in 6.2 mi NNW 11.5 mph - N/A   Partly Cloudy
12:00 PM 80.6 °F 81.8 °F 62.6 °F 54% 30.01 in 6.2 mi NNW 13.8 mph - N/A   Mostly Cloudy
1:00 PM 82.4 °F 82.9 °F 60.8 °F 48% 29.98 in 6.2 mi NNW 13.8 mph - N/A   Scattered Clouds
2:00 PM 80.6 °F 81.5 °F 60.8 °F 51% 29.98 in 6.2 mi NNW 11.5 mph - N/A   Scattered Clouds
3:00 PM 81 °F - 62 °F 42%  in 12 mi NW 10.4 mph - -   Partly Cloudy
3:00 PM 80.6 °F 81.8 °F 62.6 °F 54% 29.95 in 6.2 mi NW 10.4 mph - N/A   Mostly Cloudy
4:00 PM 80.6 °F 81.8 °F 62.6 °F 54% 29.95 in 6.2 mi NW 10.4 mph - N/A   Mostly Cloudy
5:00 PM 78.8 °F - 62.6 °F 57% 29.95 in 6.2 mi NW 8.1 mph - N/A   Mostly Cloudy
6:00 PM 78.8 °F - 62.6 °F 57% 29.95 in 6.2 mi NNW 11.5 mph - N/A   Mostly Cloudy
7:00 PM 77.0 °F - 62.6 °F 61% 29.95 in 6.2 mi NNW 8.1 mph - N/A   Mostly Cloudy
8:00 PM 77.0 °F - 62.6 °F 61% 29.95 in 6.2 mi North 8.1 mph - N/A   Mostly Cloudy
9:00 PM 77 °F - 63 °F 53%  in 12 mi North 10.4 mph - -   Scattered Clouds
9:00 PM 77.0 °F - 62.6 °F 61% 29.95 in 6.2 mi North 10.4 mph - N/A   Mostly Cloudy
10:00 PM 75.2 °F - 62.6 °F 65% 29.95 in 6.2 mi North 9.2 mph - N/A   Mostly Cloudy
11:00 PM 75.2 °F - 62.6 °F 65% 29.98 in 6.2 mi North 9.2 mph - N/A   Mostly Cloudy